Regional Weather Roundup
Issued by NWS

Home | Current Version | Previous Version | Text Only | Print | Product List | Glossary On
Versions: 1 2 3 4 5 6 7 8 9 10 11 12 13 14 15 16 17 18 19 20 21 22 23 24 25 26 27 28 29 30 31 32 33 34 35 36 37 38 39 40 41 42 43 44 45 46 47 48
000
ASUS45 KSLC 250710
RWRUT

UTAH REGIONAL WEATHER ROUNDUP
NATIONAL WEATHER SERVICE SALT LAKE CITY UT
1200 AM MST THU DEC 25 2014

UTZ001>011-023>025-250800-

NORTHERN UTAH

CITY           SKY/WX    TMP DP  RH WIND       PRES   REMARKS
BRIGHAM CITY   CLOUDY    37  28  69 W7        29.44R WCI  31
HILL AFB       CLOUDY    39  25  56 W15       29.44R WCI  31
LOGAN          MIX PCPN  34  29  82 E7        29.41S WCI  28
OGDEN          CLOUDY    41  27  57 SW7       29.44R
PROVO AIRPORT  CLOUDY    37  27  65 E9        29.45F WCI  31
SALT LAKE CITY CLOUDY    45  26  47 W16G28    29.44R
VERNAL         CLOUDY    26  18  71 N5        29.61F WCI  20
WENDOVER       CLOUDY    37  28  70 NW13      29.48R WCI  29
HEBER CITY     CLOUDY    37  28  70 S7        29.45F WCI  32
WEST JORDAN    CLOUDY    43  28  56 S18       29.42S

$$

UTZ012>022-026-027-250800-

SOUTHERN/CENTRAL UTAH

CITY           SKY/WX    TMP DP  RH WIND       PRES   REMARKS
BLANDING       CLOUDY    30  17  57 CALM      29.79F
BRYCE CANYON   PTCLDY    23  14  68 SE5       29.63F WCI  17
CEDAR CITY     CLOUDY    40  16  37 SW28G45   29.54F WCI  29
DELTA          MOCLDY    38  19  45 S20G25    29.48F WCI  29
MILFORD        CLOUDY    36  15  42 S28       29.50F WCI  23
MOAB/CYNLANDS  PTCLDY    31  17  56 SE7       29.64F WCI  24
PRICE          CLOUDY    26  14  60 NW6       29.62F WCI  19
ST GEORGE      CLOUDY    30  14  51 S5        29.66F WCI  25
KANAB          CLEAR     27  21  80 N3        29.69F

$$

REGIONAL REPORTS     COLORADO/ARIZONA

CITY           SKY/WX    TMP DP  RH WIND       PRES   REMARKS
CRAIG, CO      CLOUDY    27  16  63 E9        29.58F WCI  18
GRAND JUNCTION CLOUDY    28  20  71 S5        29.66F WCI  23
RIFLE          CLOUDY    25  17  72 CALM      29.68F
MONTROSE       CLOUDY    29  17  61 SE12      29.71S WCI  19
CORTEZ         CLEAR     28  19  69 NE6       29.74F WCI  22
PAGE, AZ       CLEAR     33  19  56 CALM      29.64F
GRAND CANYON   CLEAR     34  13  41 S14G22    29.74F WCI  25
KINGMAN        CLEAR     40  15  36 SE8       29.75F WCI  34
FLAGSTAFF      PTCLDY    31  10  41 SW21G26   29.79F WCI  18

$$

REGIONAL REPORTS    NEVADA/IDAHO/WYOMING

CITY           SKY/WX    TMP DP  RH WIND       PRES   REMARKS
LAS VEGAS, NV  PTCLDY    45  21  38 NE8       29.56F
ELY            CLOUDY    29  27  92 E3        29.57F
ELKO           CLOUDY    29  21  72 W18G35    29.62R WCI  16
POCATELLO, ID  CLOUDY    31  29  92 SW24G32   29.42R WCI  17
EVANSTON, WY   LGT SNOW  33  28  81 SW21G36   29.40F WCI  21
ROCK SPRINGS   MOCLDY    28  16  60 S17       29.42F WCI  16
KEMMERER       PTCLDY    30  27  86 SW12      29.40F WCI  21

$$


USA.gov is the U.S. government's official web portal to all federal, state and local government web resources and services.